Time,TemperatureF,DewpointF,PressureIn,WindDirection,WindDirectionDegrees,WindSpeedMPH,WindSpeedGustMPH,Humidity,HourlyPrecipIn,Conditions,Clouds,dailyrainin,SoftwareType,DateUTC
2013-02-22 00:02:00,24.0,15.0,-100.00,East,80,2.0,8.0,69,0.00,,,-99.99,,2013-02-22 05:02:00,
2013-02-22 00:12:00,24.0,15.0,-100.00,ENE,75,3.0,7.0,70,0.00,,,-99.99,,2013-02-22 05:12:00,
2013-02-22 00:22:00,24.0,15.0,-100.00,ENE,75,3.0,10.0,70,0.00,,,-99.99,,2013-02-22 05:22:00,
2013-02-22 00:32:00,23.0,15.0,-100.00,NE,45,6.0,11.0,69,0.00,,,-99.99,,2013-02-22 05:32:00,
2013-02-22 00:42:00,24.0,15.0,-100.00,NE,50,6.0,9.0,69,0.00,,,-99.99,,2013-02-22 05:42:00,
2013-02-22 00:52:00,24.0,15.0,-100.00,East,90,3.0,11.0,68,0.00,,,-99.99,,2013-02-22 05:52:00,
2013-02-22 01:02:00,24.0,15.0,-100.00,East,85,6.0,10.0,68,0.00,,,-99.99,,2013-02-22 06:02:00,
2013-02-22 01:12:00,24.0,15.0,-100.00,ENE,75,6.0,9.0,68,0.00,,,-99.99,,2013-02-22 06:12:00,
2013-02-22 01:22:00,24.0,15.0,-100.00,ENE,65,7.0,9.0,69,0.00,,,-99.99,,2013-02-22 06:22:00,
2013-02-22 01:32:00,24.0,15.0,-100.00,ENE,60,5.0,10.0,68,0.00,,,-99.99,,2013-02-22 06:32:00,
2013-02-22 01:42:00,24.0,15.0,-100.00,ENE,75,6.0,11.0,69,0.00,,,-99.99,,2013-02-22 06:42:00,
2013-02-22 01:51:00,24.0,15.0,-100.00,ENE,60,6.0,8.0,69,0.00,,,-99.99,,2013-02-22 06:51:00,
2013-02-22 02:01:00,24.0,15.0,-100.00,ENE,65,4.0,11.0,69,0.00,,,-99.99,,2013-02-22 07:01:00,
2013-02-22 02:11:00,24.0,15.0,-100.00,ENE,65,4.0,9.0,69,0.00,,,-99.99,,2013-02-22 07:11:00,
2013-02-22 02:21:00,24.0,15.0,-100.00,ENE,60,8.0,14.0,69,0.00,,,-99.99,,2013-02-22 07:21:00,
2013-02-22 02:32:00,24.0,15.0,-100.00,East,90,5.0,9.0,69,0.00,,,-99.99,,2013-02-22 07:32:00,
2013-02-22 02:42:00,24.0,15.0,-100.00,East,85,4.0,11.0,69,0.00,,,-99.99,,2013-02-22 07:42:00,
2013-02-22 02:51:00,24.0,15.0,-100.00,NE,50,4.0,9.0,69,0.00,,,-99.99,,2013-02-22 07:51:00,
2013-02-22 03:01:00,24.0,15.0,-100.00,East,80,3.0,9.0,69,0.00,,,-99.99,,2013-02-22 08:01:00,
2013-02-22 03:11:00,24.0,16.0,-100.00,ENE,75,3.0,9.0,69,0.00,,,-99.99,,2013-02-22 08:11:00,
2013-02-22 03:21:00,24.0,16.0,-100.00,ENE,60,2.0,7.0,69,0.00,,,-99.99,,2013-02-22 08:21:00,
2013-02-22 03:32:00,24.0,16.0,-100.00,NE,50,6.0,10.0,70,1.10,,,-99.99,,2013-02-22 08:32:00,
2013-02-22 03:42:00,24.0,16.0,-100.00,NE,35,5.0,14.0,72,0.00,,,-99.99,,2013-02-22 08:42:00,
2013-02-22 03:52:00,24.0,17.0,-100.00,NE,40,4.0,12.0,75,0.55,,,-99.99,,2013-02-22 08:52:00,
2013-02-22 04:03:00,24.0,18.0,-100.00,East,85,6.0,14.0,78,0.00,,,-99.99,,2013-02-22 09:03:00,
2013-02-22 04:11:00,24.0,18.0,-100.00,East,80,6.0,12.0,76,0.00,,,-99.99,,2013-02-22 09:11:00,
2013-02-22 04:21:00,24.0,17.0,-100.00,ENE,70,7.0,13.0,74,0.00,,,-99.99,,2013-02-22 09:21:00,
2013-02-22 04:32:00,24.0,17.0,-100.00,ENE,65,8.0,12.0,73,0.00,,,-99.99,,2013-02-22 09:32:00,
2013-02-22 04:42:00,24.0,17.0,-100.00,ENE,65,7.0,12.0,73,0.00,,,-99.99,,2013-02-22 09:42:00,
2013-02-22 04:51:00,25.0,17.0,-100.00,ENE,75,5.0,11.0,73,0.00,,,-99.99,,2013-02-22 09:51:00,
2013-02-22 05:01:00,25.0,18.0,-100.00,ENE,70,6.0,10.0,73,0.00,,,-99.99,,2013-02-22 10:01:00,
2013-02-22 05:11:00,25.0,18.0,-100.00,ENE,70,5.0,12.0,74,0.00,,,-99.99,,2013-02-22 10:11:00,
2013-02-22 05:21:00,25.0,18.0,-100.00,ENE,65,4.0,10.0,73,0.00,,,-99.99,,2013-02-22 10:21:00,
2013-02-22 05:32:00,25.0,18.0,-100.00,ENE,60,4.0,9.0,73,0.00,,,-99.99,,2013-02-22 10:32:00,
2013-02-22 05:42:00,25.0,18.0,-100.00,ENE,75,6.0,11.0,74,0.00,,,-99.99,,2013-02-22 10:42:00,
2013-02-22 05:51:00,26.0,18.0,-100.00,ENE,75,6.0,13.0,72,0.00,,,-99.99,,2013-02-22 10:51:00,
2013-02-22 06:01:00,26.0,18.0,-100.00,ENE,65,7.0,12.0,72,0.00,,,-99.99,,2013-02-22 11:01:00,
2013-02-22 06:11:00,26.0,18.0,-100.00,East,80,6.0,12.0,72,0.00,,,-99.99,,2013-02-22 11:11:00,
2013-02-22 06:21:00,26.0,19.0,-100.00,East,80,5.0,10.0,72,0.00,,,-99.99,,2013-02-22 11:21:00,
2013-02-22 06:32:00,26.0,19.0,-100.00,East,90,5.0,10.0,72,0.00,,,-99.99,,2013-02-22 11:32:00,
2013-02-22 06:42:00,27.0,20.0,-100.00,East,85,7.0,11.0,74,0.00,,,-99.99,,2013-02-22 11:42:00,
2013-02-22 06:52:00,26.0,20.0,-100.00,East,85,8.0,12.0,77,0.00,,,-99.99,,2013-02-22 11:52:00,
2013-02-22 07:02:00,27.0,22.0,-100.00,East,85,2.0,8.0,80,0.00,,,-99.99,,2013-02-22 12:02:00,
2013-02-22 07:11:00,27.0,22.0,-100.00,ENE,75,3.0,12.0,81,0.00,,,-99.99,,2013-02-22 12:11:00,
2013-02-22 07:22:00,27.0,22.0,-100.00,ESE,115,2.0,7.0,83,0.00,,,-99.99,,2013-02-22 12:22:00,
2013-02-22 07:32:00,27.0,23.0,-100.00,East,95,3.0,9.0,83,4.53,,,-99.99,,2013-02-22 12:32:00,
2013-02-22 07:42:00,27.0,23.0,-100.00,East,90,5.0,9.0,83,0.00,,,-99.99,,2013-02-22 12:42:00,
2013-02-22 07:52:00,28.0,24.0,-100.00,East,90,6.0,12.0,84,0.00,,,-99.99,,2013-02-22 12:52:00,
2013-02-22 08:02:00,27.0,24.0,-100.00,East,80,6.0,10.0,85,0.00,,,-99.99,,2013-02-22 13:02:00,
2013-02-22 08:11:00,28.0,24.0,-100.00,East,100,4.0,11.0,87,0.00,,,-99.99,,2013-02-22 13:11:00,
2013-02-22 08:22:00,28.0,25.0,-100.00,East,80,2.0,9.0,89,0.00,,,-99.99,,2013-02-22 13:22:00,
2013-02-22 08:32:00,28.0,25.0,-100.00,ESE,115,2.0,12.0,90,0.00,,,-99.99,,2013-02-22 13:32:00,
2013-02-22 08:42:00,28.0,26.0,-100.00,East,80,3.0,8.0,91,0.00,,,-99.99,,2013-02-22 13:42:00,
2013-02-22 08:52:00,28.0,26.0,-100.00,East,85,6.0,9.0,91,0.00,,,-99.99,,2013-02-22 13:52:00,
2013-02-22 09:01:00,28.0,26.0,-100.00,East,85,7.0,9.0,91,0.00,,,-99.99,,2013-02-22 14:01:00,
2013-02-22 09:11:00,28.0,26.0,-100.00,East,100,3.0,9.0,92,0.00,,,-99.99,,2013-02-22 14:11:00,
2013-02-22 09:21:00,29.0,27.0,-100.00,East,85,3.0,10.0,92,0.00,,,-99.99,,2013-02-22 14:21:00,
2013-02-22 09:32:00,29.0,27.0,-100.00,East,80,2.0,8.0,92,0.00,,,-99.99,,2013-02-22 14:32:00,
2013-02-22 09:42:00,29.0,28.0,-100.00,East,90,4.0,7.0,93,0.00,,,-99.99,,2013-02-22 14:42:00,
2013-02-22 09:52:00,29.0,28.0,-100.00,East,100,2.0,7.0,93,0.00,,,-99.99,,2013-02-22 14:52:00,
2013-02-22 10:02:00,30.0,28.0,-100.00,SE,125,2.0,6.0,93,0.00,,,-99.99,,2013-02-22 15:02:00,
2013-02-22 10:11:00,30.0,28.0,-100.00,ESE,115,2.0,4.0,93,0.00,,,-99.99,,2013-02-22 15:11:00,
2013-02-22 10:22:00,30.0,29.0,-100.00,ESE,120,3.0,9.0,93,0.00,,,-99.99,,2013-02-22 15:22:00,
2013-02-22 10:32:00,31.0,29.0,-100.00,SE,140,2.0,6.0,93,0.00,,,-99.99,,2013-02-22 15:32:00,
2013-02-22 10:42:00,31.0,29.0,-100.00,East,100,2.0,7.0,93,0.00,,,-99.99,,2013-02-22 15:42:00,
2013-02-22 10:52:00,31.0,29.0,-100.00,SE,125,4.0,7.0,93,0.00,,,-99.99,,2013-02-22 15:52:00,
2013-02-22 11:02:00,31.0,29.0,-100.00,ESE,110,2.0,8.0,93,0.00,,,-99.99,,2013-02-22 16:02:00,
2013-02-22 11:12:00,31.0,30.0,-100.00,ESE,115,3.0,7.0,93,0.00,,,-99.99,,2013-02-22 16:12:00,
2013-02-22 11:22:00,31.0,30.0,-100.00,ESE,115,2.0,6.0,93,0.00,,,-99.99,,2013-02-22 16:22:00,
2013-02-22 11:32:00,32.0,30.0,-100.00,ESE,115,0.0,5.0,93,0.00,,,-99.99,,2013-02-22 16:32:00,
2013-02-22 11:42:00,32.0,30.0,-100.00,ESE,120,1.0,4.0,94,0.00,,,-99.99,,2013-02-22 16:42:00,
2013-02-22 11:52:00,32.0,31.0,-100.00,ESE,110,1.0,5.0,94,0.00,,,-99.99,,2013-02-22 16:52:00,
2013-02-22 12:01:00,32.0,31.0,-100.00,ESE,115,1.0,5.0,94,0.00,,,-99.99,,2013-02-22 17:01:00,
2013-02-22 12:11:00,32.0,31.0,-100.00,ESE,115,1.0,4.0,94,0.00,,,-99.99,,2013-02-22 17:11:00,
2013-02-22 12:21:00,33.0,31.0,-100.00,ESE,120,1.0,3.0,94,0.00,,,-99.99,,2013-02-22 17:21:00,
2013-02-22 12:32:00,33.0,31.0,-100.00,ESE,115,2.0,4.0,94,0.00,,,-99.99,,2013-02-22 17:32:00,
2013-02-22 12:42:00,33.0,32.0,-100.00,East,100,1.0,4.0,94,0.00,,,-99.99,,2013-02-22 17:42:00,
2013-02-22 12:52:00,33.0,32.0,-100.00,SE,125,1.0,6.0,94,0.00,,,-99.99,,2013-02-22 17:52:00,
2013-02-22 13:02:00,34.0,32.0,-100.00,ESE,110,2.0,6.0,94,0.00,,,-99.99,,2013-02-22 18:02:00,
2013-02-22 13:12:00,34.0,32.0,-100.00,SE,140,2.0,5.0,94,0.00,,,-99.99,,2013-02-22 18:12:00,
2013-02-22 13:22:00,34.0,33.0,-100.00,ESE,110,1.0,4.0,93,0.00,,,-99.99,,2013-02-22 18:22:00,
2013-02-22 13:32:00,35.0,33.0,-100.00,SE,125,1.0,3.0,93,0.55,,,-99.99,,2013-02-22 18:32:00,
2013-02-22 13:42:00,35.0,33.0,-100.00,ESE,120,2.0,3.0,93,0.00,,,-99.99,,2013-02-22 18:42:00,
2013-02-22 13:51:00,35.0,34.0,-100.00,SE,135,1.0,4.0,93,0.00,,,-99.99,,2013-02-22 18:51:00,
2013-02-22 14:01:00,36.0,34.0,-100.00,SE,130,0.0,5.0,93,0.00,,,-99.99,,2013-02-22 19:01:00,
2013-02-22 14:11:00,36.0,34.0,-100.00,SSE,150,3.0,5.0,93,0.00,,,-99.99,,2013-02-22 19:11:00,
2013-02-22 14:21:00,36.0,35.0,-100.00,SE,130,0.0,4.0,93,0.00,,,-99.99,,2013-02-22 19:21:00,
2013-02-22 14:31:00,37.0,35.0,-100.00,SE,130,0.0,3.0,92,0.00,,,-99.99,,2013-02-22 19:31:00,
2013-02-22 14:41:00,37.0,35.0,-100.00,SE,145,0.0,3.0,93,0.00,,,-99.99,,2013-02-22 19:41:00,
2013-02-22 14:52:00,38.0,36.0,-100.00,SSE,165,0.0,1.0,93,0.00,,,-99.99,,2013-02-22 19:52:00,
2013-02-22 15:01:00,38.0,36.0,-100.00,SSE,155,1.0,3.0,93,0.00,,,-99.99,,2013-02-22 20:01:00,
2013-02-22 15:11:00,38.0,37.0,-100.00,SSW,205,4.0,8.0,92,0.00,,,-99.99,,2013-02-22 20:11:00,
2013-02-22 15:21:00,39.0,37.0,-100.00,SW,235,9.0,14.0,91,0.00,,,-99.99,,2013-02-22 20:21:00,
2013-02-22 15:32:00,40.0,37.0,-100.00,SW,220,7.0,19.0,88,0.00,,,-99.99,,2013-02-22 20:32:00,
2013-02-22 15:41:00,41.0,36.0,-100.00,SW,230,8.0,17.0,84,0.00,,,-99.99,,2013-02-22 20:41:00,
2013-02-22 15:52:00,40.0,35.0,-100.00,SW,230,7.0,13.0,84,0.00,,,-99.99,,2013-02-22 20:52:00,
2013-02-22 16:02:00,41.0,35.0,-100.00,SW,220,7.0,17.0,78,0.00,,,-99.99,,2013-02-22 21:02:00,
2013-02-22 16:11:00,41.0,34.0,-100.00,SW,215,6.0,15.0,77,0.00,,,-99.99,,2013-02-22 21:11:00,
2013-02-22 16:21:00,41.0,33.0,-100.00,SW,230,7.0,14.0,74,0.00,,,-99.99,,2013-02-22 21:21:00,
2013-02-22 16:32:00,41.0,33.0,-100.00,SW,230,4.0,14.0,74,0.00,,,-99.99,,2013-02-22 21:32:00,
2013-02-22 16:42:00,41.0,33.0,-100.00,SW,220,6.0,16.0,75,0.00,,,-99.99,,2013-02-22 21:42:00,
2013-02-22 16:52:00,41.0,33.0,-100.00,WSW,255,7.0,13.0,75,0.00,,,-99.99,,2013-02-22 21:52:00,
2013-02-22 17:01:00,41.0,33.0,-100.00,SW,225,7.0,16.0,74,0.00,,,-99.99,,2013-02-22 22:01:00,
2013-02-22 17:11:00,41.0,33.0,-100.00,SW,230,6.0,17.0,73,0.00,,,-99.99,,2013-02-22 22:11:00,
2013-02-22 17:21:00,41.0,33.0,-100.00,SW,230,4.0,8.0,72,0.00,,,-99.99,,2013-02-22 22:21:00,
2013-02-22 17:32:00,41.0,33.0,-100.00,SW,215,3.0,9.0,73,0.00,,,-99.99,,2013-02-22 22:32:00,
2013-02-22 17:42:00,41.0,33.0,-100.00,West,265,6.0,11.0,73,0.00,,,-99.99,,2013-02-22 22:42:00,
2013-02-22 17:51:00,41.0,33.0,-100.00,SW,225,2.0,7.0,74,0.00,,,-99.99,,2013-02-22 22:51:00,
2013-02-22 18:01:00,41.0,33.0,-100.00,SW,215,2.0,10.0,75,0.00,,,-99.99,,2013-02-22 23:01:00,
2013-02-22 18:11:00,40.0,33.0,-100.00,WSW,250,2.0,7.0,77,0.00,,,-99.99,,2013-02-22 23:11:00,
2013-02-22 18:21:00,40.0,33.0,-100.00,SW,220,2.0,7.0,77,0.00,,,-99.99,,2013-02-22 23:21:00,
2013-02-22 18:32:00,39.0,33.0,-100.00,SW,220,4.0,7.0,78,0.00,,,-99.99,,2013-02-22 23:32:00,
2013-02-22 18:41:00,39.0,33.0,-100.00,SSW,200,1.0,6.0,78,0.00,,,-99.99,,2013-02-22 23:41:00,
2013-02-22 18:52:00,39.0,33.0,-100.00,SW,225,0.0,3.0,79,0.00,,,-99.99,,2013-02-22 23:52:00,
2013-02-22 19:02:00,39.0,33.0,-100.00,SSW,205,1.0,2.0,80,0.00,,,-99.99,,2013-02-23 00:02:00,
2013-02-22 19:11:00,38.0,33.0,-100.00,SW,225,0.0,1.0,80,0.00,,,-99.99,,2013-02-23 00:11:00,
2013-02-22 19:21:00,39.0,33.0,-100.00,South,175,1.0,4.0,80,0.00,,,-99.99,,2013-02-23 00:21:00,
2013-02-22 19:32:00,38.0,33.0,-100.00,SSW,195,0.0,2.0,80,0.00,,,-99.99,,2013-02-23 00:32:00,
2013-02-22 19:42:00,38.0,33.0,-100.00,SSW,205,0.0,2.0,80,0.00,,,-99.99,,2013-02-23 00:42:00,
2013-02-22 19:51:00,38.0,33.0,-100.00,SW,230,0.0,5.0,81,0.00,,,-99.99,,2013-02-23 00:51:00,
2013-02-22 20:01:00,38.0,33.0,-100.00,WSW,245,0.0,2.0,82,0.00,,,-99.99,,2013-02-23 01:01:00,
2013-02-22 20:11:00,38.0,33.0,-100.00,WNW,290,1.0,6.0,81,0.00,,,-99.99,,2013-02-23 01:11:00,
2013-02-22 20:21:00,38.0,33.0,-100.00,SW,225,1.0,7.0,80,0.00,,,-99.99,,2013-02-23 01:21:00,
2013-02-22 20:32:00,38.0,33.0,-100.00,SW,220,3.0,7.0,79,0.00,,,-99.99,,2013-02-23 01:32:00,
2013-02-22 20:42:00,38.0,32.0,-100.00,WSW,250,3.0,11.0,79,0.00,,,-99.99,,2013-02-23 01:42:00,
2013-02-22 20:51:00,38.0,32.0,-100.00,SW,225,1.0,6.0,80,0.00,,,-99.99,,2013-02-23 01:51:00,
2013-02-22 21:01:00,38.0,32.0,-100.00,SW,230,2.0,3.0,79,0.00,,,-99.99,,2013-02-23 02:01:00,
2013-02-22 21:11:00,37.0,32.0,-100.00,SW,230,1.0,3.0,80,0.00,,,-99.99,,2013-02-23 02:11:00,
2013-02-22 21:21:00,37.0,32.0,-100.00,West,275,2.0,4.0,80,0.00,,,-99.99,,2013-02-23 02:21:00,
2013-02-22 21:32:00,37.0,31.0,-100.00,West,275,1.0,6.0,81,0.00,,,-99.99,,2013-02-23 02:32:00,
2013-02-22 21:42:00,37.0,31.0,-100.00,West,260,1.0,5.0,81,0.00,,,-99.99,,2013-02-23 02:42:00,
2013-02-22 21:52:00,36.0,31.0,-100.00,WSW,255,0.0,4.0,82,0.00,,,-99.99,,2013-02-23 02:52:00,
2013-02-22 22:02:00,35.0,31.0,-100.00,West,270,0.0,2.0,83,0.00,,,-99.99,,2013-02-23 03:02:00,
2013-02-22 22:11:00,35.0,31.0,-100.00,West,275,1.0,3.0,83,0.00,,,-99.99,,2013-02-23 03:11:00,
2013-02-22 22:21:00,36.0,31.0,-100.00,WSW,255,1.0,6.0,81,0.00,,,-99.99,,2013-02-23 03:21:00,
2013-02-22 22:32:00,35.0,30.0,-100.00,SW,230,1.0,3.0,80,0.00,,,-99.99,,2013-02-23 03:32:00,
2013-02-22 22:42:00,35.0,30.0,-100.00,WSW,250,1.0,3.0,82,0.00,,,-99.99,,2013-02-23 03:42:00,
2013-02-22 22:51:00,35.0,30.0,-100.00,WSW,255,0.0,1.0,83,0.00,,,-99.99,,2013-02-23 03:51:00,
2013-02-22 23:01:00,33.0,29.0,-100.00,SW,225,0.0,0.0,84,0.00,,,-99.99,,2013-02-23 04:01:00,
2013-02-22 23:11:00,32.0,29.0,-100.00,SW,225,0.0,0.0,87,0.00,,,-99.99,,2013-02-23 04:11:00,
2013-02-22 23:21:00,32.0,29.0,-100.00,SSW,205,0.0,0.0,88,0.00,,,-99.99,,2013-02-23 04:21:00,
2013-02-22 23:32:00,32.0,29.0,-100.00,SW,215,0.0,0.0,89,0.00,,,-99.99,,2013-02-23 04:32:00,
2013-02-22 23:41:00,33.0,30.0,-100.00,SW,230,0.0,0.0,89,0.00,,,-99.99,,2013-02-23 04:41:00,
2013-02-22 23:51:00,33.0,30.0,-100.00,SW,230,0.0,0.0,90,0.00,,,-99.99,,2013-02-23 04:51:00,